Location: Buch
(50.1863°N, 11.0141°E)
Time: 06:44:00
(UTC+00:00)

NOAA 12 - Pass Details

Date: 18 January 2020
Orbit: 796 x 814 km, 98.5° (Epoch: 23 February)

Event Time Altitude Azimuth Distance (km) Brightness Sun altitude
Rises 06:10:24 0° 14° (NNE) 3,325 7.2 -9.0°
Reaches altitude 10° 06:12:44 10° 15° (NNE) 2,393 6.5 -8.6°
Maximum altitude 06:18:03 89° 103° (ESE) 813 4.2 -7.8°
Drops below altitude 10° 06:23:20 10° 196° (SSW) 2,387 6.7 -7.0°
Sets 06:25:40 0° 197° (SSW) 3,317 7.4 -6.7°
